Location: Bieg
(49.3499°N, 10.3835°E)
Time: 21:13:29
(UTC+00:00)

Meteor 1-21 - Pass Details

Date: 23 May 2024
Orbit: 844 x 886 km, 81.2° (Epoch: 25 June)

Event Time Altitude Azimuth Distance (km) Brightness Sun altitude
Exits shadow 00:04:42 33° 175° (S) 1,403 4.8 -19.2°
Maximum altitude 00:07:18 73° 99° (E) 907 4.3 -19.1°
Drops below altitude 10° 00:13:02 10° 15° (NNE) 2,534 8.0 -18.8°
Sets 00:15:30 0° 14° (NNE) 3,482 9.1 -18.7°
